Theta_e
341 342 342 342 343 344 345 343 343 343 343 341 342 341 340 341 340 339 340 340 338 338 338 339 338 338 337 336 334 333 333 332 333 333 333 331 337 344 347 345 345 346 348 348 348 347 346 346 346 344 344 342 340 339 340 340 338 336 336 336 335 334 334 334 334 333 332 331 330 330 330 330 331 332 333 332 333 335 336 337 338 338 338 338 338
343 344 343 343 344 344 346 344 343 343 342 341 343 341 340 339 339 338 339 338 337 338 340 339 339 338 337 336 336 335 334 333 333 332 334 333 337 338 347 345 344 345 346 348 348 348 347 346 347 346 345 344 342 341 341 340 338 337 337 336 335 334 334 334 334 334 333 332 331 330 330 330 331 332 332 332 333 334 335 337 337 337 337 338 337
344 343 342 341 343 344 341 342 340 342 344 342 340 340 339 339 339 338 339 339 339 339 339 339 339 339 339 337 336 336 336 335 334 335 333 332 332 335 342 347 344 343 344 344 347 349 349 347 347 347 346 345 343 343 342 340 339 337 336 337 335 334 335 335 335 334 333 332 331 331 330 331 332 333 332 332 332 334 335 336 337 337 337 337 337
345 345 343 340 340 340 339 340 340 342 343 339 339 340 339 340 340 340 339 339 339 339 339 338 339 339 339 339 338 337 337 336 335 334 335 334 337 338 340 343 345 343 343 344 344 347 348 348 347 347 346 344 343 343 343 341 340 338 337 337 335 334 335 335 335 335 334 332 332 331 330 330 331 333 332 331 331 332 335 336 336 337 337 337 337
346 344 343 339 340 340 338 339 340 340 339 339 339 338 340 340 339 340 338 338 337 336 338 337 335 335 336 337 337 338 338 336 336 336 335 334 334 338 338 340 339 343 342 344 343 344 347 347 348 347 346 345 344 344 344 343 340 338 337 336 336 335 335 335 335 334 333 333 332 331 330 330 330 332 332 331 331 332 333 335 336 336 336 336 336
345 342 341 339 338 341 337 339 342 339 339 340 339 339 338 338 337 336 339 336 335 334 334 333 333 333 334 335 335 335 336 337 335 336 336 335 336 337 337 336 336 337 339 342 343 342 342 345 347 346 342 341 341 341 343 343 341 338 337 337 336 336 336 336 336 335 334 333 332 331 331 330 330 331 332 331 331 332 334 335 335 336 336 336 336
344 341 342 338 340 338 338 339 340 339 339 339 338 338 336 336 336 335 335 334 333 334 333 332 331 332 332 333 333 334 335 336 338 337 336 335 336 336 335 335 335 335 335 334 338 342 341 341 344 345 343 343 340 340 343 341 342 340 339 337 337 337 336 335 336 335 334 334 332 332 331 331 329 330 332 331 331 331 334 335 335 336 335 335 336
344 343 341 340 339 338 340 341 340 340 339 338 338 337 335 336 335 335 332 332 332 332 333 331 332 331 332 332 332 333 333 333 334 336 337 337 337 337 338 338 334 332 337 334 334 337 341 342 342 342 342 342 342 341 341 340 340 341 340 338 338 338 336 336 335 336 334 333 333 332 332 331 329 330 332 332 331 331 333 335 335 336 335 335 335
342 344 343 341 340 340 341 338 340 338 337 336 336 336 335 335 333 334 332 332 331 331 331 331 331 332 331 331 332 333 332 333 333 333 337 337 336 336 336 334 335 338 335 334 334 334 337 339 342 341 340 340 340 340 340 340 339 341 340 339 339 338 338 337 336 336 335 334 333 333 332 331 330 329 331 332 331 332 333 334 335 335 335 335 335
340 344 341 342 340 338 337 338 338 336 336 334 332 333 333 332 331 332 333 332 330 330 329 330 331 330 329 330 331 331 332 332 333 334 333 333 335 335 334 332 333 334 334 333 333 334 335 337 339 339 339 338 339 340 340 340 339 338 338 340 340 339 339 339 338 336 335 334 334 332 331 331 330 329 330 332 332 332 332 334 335 335 335 335 334
337 342 339 337 337 336 335 335 334 334 333 332 332 332 332 331 330 331 332 331 330 330 329 330 328 328 328 329 330 330 331 331 332 332 332 332 333 336 335 334 332 332 332 333 334 334 334 334 334 336 338 339 338 338 339 339 339 340 338 339 342 341 340 338 338 337 335 335 333 333 331 331 331 329 330 332 332 332 332 333 335 335 335 335 335
339 338 337 336 335 334 334 334 333 332 331 330 330 329 330 330 330 329 328 328 328 329 329 328 327 326 327 327 328 328 329 330 330 331 333 334 334 334 334 333 331 331 332 333 333 333 333 333 334 335 335 337 338 337 337 338 337 338 339 338 341 339 341 338 338 338 336 335 334 333 332 331 331 330 330 332 332 331 332 333 335 335 336 335 334
337 336 335 337 334 333 332 331 332 331 330 329 329 329 331 329 329 327 327 325 326 328 330 329 325 324 325 324 325 327 329 328 329 327 327 329 331 333 334 332 332 331 331 331 331 331 332 332 333 333 334 335 335 336 335 334 336 337 339 338 340 340 339 339 338 337 336 335 333 332 332 331 332 331 329 330 332 332 332 332 335 334 335 334 333
336 336 334 332 331 330 330 330 330 330 330 329 330 331 328 328 328 325 327 325 325 328 329 328 323 321 321 321 322 323 326 326 326 327 327 327 328 330 331 331 331 332 332 332 332 332 332 332 332 332 333 334 334 333 334 334 335 336 338 338 337 338 340 339 339 338 336 335 334 333 332 331 332 332 330 330 330 332 332 332 334 334 334 333 333
333 334 333 332 330 329 328 329 328 329 328 327 327 327 327 327 327 326 325 326 326 329 328 329 324 324 322 318 316 317 319 319 324 327 326 326 327 327 330 331 332 333 332 331 330 330 331 331 330 331 331 332 332 332 332 333 333 335 337 338 340 340 339 338 339 339 337 336 334 333 332 331 331 332 330 331 330 331 333 331 333 334 334 333 333
331 331 331 330 330 328 329 328 328 329 327 326 326 327 328 328 327 327 326 324 324 325 329 329 327 324 317 317 317 316 313 317 321 325 324 325 325 326 326 328 330 331 332 331 331 330 330 330 330 331 332 332 331 331 331 331 333 334 333 335 337 338 339 338 340 339 337 335 335 333 332 331 331 331 331 330 330 332 332 332 332 333 333 333 333
331 330 331 329 329 328 328 328 328 329 330 328 328 329 329 328 328 327 327 323 324 323 326 328 327 329 324 319 317 314 315 319 322 320 323 323 323 325 326 327 327 328 330 331 331 331 331 330 330 330 331 331 332 332 331 332 331 334 334 334 335 336 338 338 339 339 339 337 336 334 332 331 331 331 331 331 331 331 332 332 331 333 333 333 332
330 330 330 331 328 328 328 329 329 329 330 329 329 328 328 328 329 328 328 329 327 324 323 327 328 328 327 325 322 318 318 320 320 314 323 323 323 324 324 325 326 326 328 330 330 330 330 330 330 330 330 331 331 331 331 331 333 333 333 333 333 333 334 336 340 342 340 337 335 335 333 332 331 331 331 331 332 331 332 332 332 332 333 333 332
330 330 331 330 329 329 329 329 329 328 330 327 326 326 327 328 330 329 329 329 328 323 323 324 325 326 327 326 325 324 324 320 316 319 315 319 320 320 321 323 324 325 325 327 329 330 330 329 329 329 329 330 330 330 330 330 332 332 334 334 332 331 331 331 335 340 337 338 336 336 335 333 332 331 332 331 332 332 332 332 332 332 332 332 333
330 330 330 330 329 328 329 328 328 328 328 326 326 326 327 328 329 329 329 329 327 326 323 324 323 322 324 323 323 324 323 322 322 318 316 314 316 322 322 323 323 323 324 325 326 328 329 329 329 329 328 328 330 330 330 330 331 332 333 332 332 331 330 331 330 330 334 336 337 335 336 334 333 332 332 332 332 332 332 332 332 331 331 332 332
330 328 328 329 330 328 328 327 326 326 327 326 326 327 326 327 328 327 327 327 327 326 324 322 323 320 320 319 320 320 320 321 321 320 317 315 315 316 317 321 322 323 324 324 326 328 329 328 329 330 330 329 329 330 331 330 331 332 333 330 331 330 330 330 327 327 326 332 336 337 335 335 335 334 333 332 332 332 332 332 331 332 331 332 332
328 328 327 328 328 328 327 326 325 326 327 325 326 326 327 328 328 326 327 324 324 324 322 321 321 321 320 318 317 318 316 317 318 318 319 319 314 315 317 316 315 319 322 323 323 329 328 328 328 329 329 329 330 331 332 331 331 331 330 329 331 331 330 329 326 324 324 328 334 336 335 335 336 336 334 332 332 332 332 332 332 332 332 332 332
325 325 326 327 326 327 325 325 325 327 326 325 324 325 327 328 325 324 324 322 321 322 320 320 319 319 318 318 318 318 316 315 316 317 317 315 315 315 316 317 316 316 320 323 324 327 329 328 327 327 328 328 330 331 332 332 331 330 328 329 329 331 331 329 326 323 322 328 333 335 335 336 335 334 333 332 332 332 332 333 332 331 331 331 332
323 322 323 325 325 323 324 324 325 325 325 325 325 327 328 326 323 323 323 321 321 321 319 318 318 318 317 318 319 319 318 317 318 318 317 317 316 315 315 317 317 317 321 321 323 326 326 326 327 325 328 328 329 330 331 332 332 330 328 327 327 327 330 330 327 326 322 326 328 332 336 336 336 334 333 332 332 333 333 334 333 332 331 331 332
320 321 321 324 324 322 322 323 325 324 323 324 326 327 325 323 322 322 321 319 318 319 318 317 318 317 316 317 319 317 317 319 320 318 318 318 317 314 315 318 315 315 318 319 319 323 324 325 323 321 325 325 325 327 329 330 331 329 326 327 324 323 324 328 330 325 322 320 324 329 331 334 335 334 333 332 332 333 333 332 329 327 328 329 330
320 321 324 325 323 323 323 324 324 322 322 324 324 324 324 321 320 320 320 318 318 318 317 317 317 317 316 314 315 315 315 318 319 319 317 317 316 315 314 315 315 314 316 317 320 315 317 322 321 319 321 319 319 322 325 329 329 328 327 328 326 323 321 321 325 326 324 320 320 322 324 326 330 330 330 332 331 327 327 327 325 324 322 322 327
322 324 327 325 324 321 322 322 321 320 320 321 322 321 320 320 319 318 319 319 317 317 316 315 315 314 314 314 314 314 314 316 317 316 317 317 317 317 315 311 311 312 312 314 317 314 313 316 319 316 318 316 315 318 320 325 323 323 324 328 328 323 319 318 320 324 324 322 320 321 321 323 325 325 324 325 325 326 328 328 326 325 323 322 324
324 324 324 323 322 321 321 320 320 320 320 320 319 319 318 317 316 317 317 320 316 315 314 314 313 313 312 313 312 312 313 314 315 314 314 316 319 318 316 315 309 305 310 311 314 313 315 313 315 315 315 315 314 315 317 321 319 321 327 328 328 327 320 316 316 321 324 323 321 321 321 321 323 324 324 326 327 328 329 329 327 325 323 323 326
324 324 322 320 319 319 319 319 319 318 319 320 319 317 317 316 316 315 315 316 316 314 314 312 312 312 311 310 310 310 311 312 311 311 311 312 316 317 317 316 312 307 306 306 311 311 313 314 310 311 312 314 312 313 314 316 317 319 322 325 326 325 323 320 315 317 321 320 319 318 320 323 325 327 328 328 328 329 330 329 326 325 324 327 329
323 322 319 319 319 325 319 318 317 317 318 318 317 316 316 315 315 315 315 315 314 313 313 312 311 311 310 309 309 308 309 309 308 308 308 309 310 311 312 315 316 309 308 305 307 312 312 312 312 308 310 310 311 310 311 312 314 316 318 320 322 320 316 317 315 316 316 316 315 312 315 319 322 325 329 330 328 328 329 328 326 325 327 330 330
319 318 319 319 320 321 319 317 316 316 316 316 316 315 315 314 315 314 315 314 312 311 311 311 311 310 309 308 308 308 308 307 307 306 305 306 307 308 309 311 313 314 310 306 303 308 313 308 310 309 308 307 309 307 308 310 312 314 315 316 319 316 316 319 314 313 312 313 312 313 318 319 318 320 324 328 328 328 327 328 330 329 330 329 326
318 320 319 318 317 318 317 316 316 315 315 315 315 315 314 313 314 314 314 313 311 310 309 310 311 309 308 307 307 307 307 307 306 305 304 304 306 306 307 308 308 311 310 309 303 303 308 306 307 306 306 305 307 305 305 307 310 312 313 314 318 315 318 319 317 311 310 310 312 315 320 321 320 321 323 326 328 328 328 328 330 329 327 323 321
318 319 317 316 315 316 316 316 315 313 313 313 314 313 313 313 314 313 312 312 310 309 309 308 309 308 307 306 306 307 307 305 305 304 303 303 304 305 306 306 306 308 306 307 302 300 303 305 304 304 304 304 303 304 303 304 306 309 311 312 315 315 316 317 316 310 307 308 308 308 310 313 316 321 323 324 327 327 323 322 323 320 322 322 319
317 316 316 316 315 315 314 313 314 313 313 313 312 313 312 312 313 314 312 310 309 308 308 307 307 308 307 306 305 306 306 304 304 303 302 302 302 302 303 304 304 305 305 304 302 299 298 301 301 303 302 303 301 303 302 303 304 307 308 310 313 313 315 314 312 311 307 307 307 308 307 308 310 314 317 315 315 316 317 315 316 315 318 318 314
316 315 314 314 314 313 312 311 310 310 310 309 310 311 311 311 310 311 311 310 309 308 307 307 307 307 306 306 305 305 305 303 303 303 302 301 301 301 301 303 303 304 304 304 301 298 297 298 300 300 300 301 300 300 302 304 305 306 306 307 310 311 314 312 309 309 306 306 306 308 309 307 308 308 311 312 312 312 312 313 313 313 313 313 311
314 314 314 313 312 310 309 308 307 306 306 307 308 309 310 310 310 310 309 309 308 308 307 306 306 306 305 305 305 304 304 302 302 302 302 301 300 300 301 302 302 303 303 303 302 299 298 297 298 299 300 299 300 301 303 304 304 304 305 306 308 307 311 311 308 306 306 306 306 308 308 309 307 307 307 309 311 311 311 311 311 312 310 311 311
313 312 312 311 309 308 307 306 304 304 304 304 306 307 309 309 309 309 307 306 305 306 307 307 309 305 305 304 304 304 302 301 301 300 302 300 300 300 300 301 301 302 302 302 301 300 298 297 297 299 300 299 300 300 302 301 302 303 304 304 305 305 307 311 308 307 305 305 307 309 307 308 309 306 306 306 307 308 309 310 309 310 310 310 310
311 310 309 309 308 306 305 304 303 302 302 302 303 305 307 307 307 307 307 305 304 303 303 305 305 305 304 304 304 304 302 300 300 300 300 301 300 300 300 300 300 301 300 300 300 299 298 298 297 297 298 298 298 299 301 302 301 300 301 302 303 304 304 308 306 305 305 305 306 310 307 307 310 309 306 306 306 306 306 306 307 308 308 309 309
310 309 308 307 307 306 305 303 302 301 300 300 301 302 305 306 305 305 305 305 304 303 303 302 304 305 304 304 304 304 302 300 299 299 299 300 301 299 301 300 300 299 299 299 299 299 298 297 297 297 297 298 298 297 300 302 301 301 299 299 299 302 303 307 303 303 303 303 305 307 307 307 308 308 308 306 306 305 306 305 306 307 307 307 308
309 307 307 306 306 305 303 302 302 301 299 298 299 300 303 304 304 304 304 304 303 302 302 302 302 303 304 303 302 303 303 301 300 299 299 299 300 299 299 300 299 299 298 298 298 298 298 297 297 296 297 297 298 298 300 300 299 299 300 299 297 298 300 304 305 299 300 301 301 305 308 307 307 306 305 305 304 305 305 305 307 307 308 307 306
309 307 306 305 304 303 302 301 300 299 298 298 298 299 301 303 303 303 303 303 303 302 301 301 301 301 301 303 303 303 306 307 303 302 302 303 300 298 298 299 300 298 298 298 298 297 297 297 296 297 296 296 296 296 296 296 296 296 299 298 297 298 299 301 304 301 299 298 299 302 307 306 306 305 304 304 304 304 303 302 301 302 302 302 304
306 306 305 304 303 302 301 299 298 298 297 297 298 298 301 303 301 301 301 301 301 301 301 300 300 300 300 299 303 306 305 305 302 299 298 299 301 301 297 298 298 298 297 297 297 297 297 296 296 296 295 295 295 296 295 296 297 298 297 296 295 297 298 299 300 301 298 297 297 298 303 307 306 304 302 302 303 304 302 301 301 300 300 299 299
306 305 304 303 302 302 300 298 297 296 296 296 295 294 296 300 301 299 298 298 298 298 298 298 298 298 298 299 298 302 302 302 300 298 298 298 297 296 297 298 301 299 297 297 297 297 297 296 296 296 295 294 295 297 296 296 296 295 296 296 296 296 295 295 293 299 299 296 295 296 299 304 306 302 301 301 301 301 301 300 299 299 299 299 299
305 304 303 302 301 300 299 297 296 295 294 295 293 294 295 296 299 299 297 297 297 296 296 296 297 297 297 297 297 298 299 300 299 297 301 301 298 296 296 296 296 296 297 298 298 297 297 296 296 296 295 295 295 296 295 295 294 294 295 294 295 294 294 294 294 294 297 297 294 294 296 301 304 304 299 300 301 300 300 299 299 298 298 299 299
303 302 301 301 299 299 297 295 294 294 293 294 293 293 294 296 296 298 296 296 295 295 295 295 295 295 295 296 296 296 296 301 300 296 299 301 302 301 300 299 301 299 295 295 296 300 297 297 296 296 296 296 295 295 296 295 295 293 294 293 294 294 294 293 293 296 296 297 294 293 293 298 301 302 298 299 300 300 299 299 298 298 298 298 298
302 301 300 299 299 298 296 295 293 293 292 294 292 293 294 295 296 296 296 295 295 294 294 294 294 294 295 294 294 294 294 295 295 296 298 299 300 300 299 299 300 302 299 297 297 297 299 300 298 296 297 297 295 295 297 296 295 294 293 293 294 294 293 293 295 296 297 297 293 292 293 295 299 299 298 298 299 298 298 298 297 297 297 298 298
300 299 298 298 298 298 296 295 294 293 292 292 292 292 294 296 296 297 297 296 295 294 294 294 294 294 294 294 294 293 293 293 294 295 297 297 297 298 297 297 298 299 299 298 298 298 298 299 299 298 298 298 297 296 296 296 295 295 295 294 295 295 295 296 295 296 295 296 295 293 289 294 298 297 298 297 297 296 297 297 296 296 297 297 297
300 299 298 298 297 296 296 294 293 291 291 291 291 292 293 296 298 301 297 296 294 294 294 294 294 294 294 293 293 292 293 293 294 292 295 298 296 296 296 296 297 297 299 303 298 297 298 297 299 299 298 297 296 296 296 296 296 296 296 296 295 294 293 292 291 293 293 295 295 293 291 293 295 295 297 298 296 294 295 295 296 296 296 296 296
298 297 297 297 297 296 295 294 292 290 291 292 291 292 292 296 298 299 298 297 295 294 293 293 294 295 296 295 292 292 292 292 293 291 292 297 295 295 295 294 295 296 297 300 300 297 295 294 294 295 294 294 294 295 294 294 296 297 295 293 292 293 291 290 290 291 291 293 294 294 293 291 293 294 293 296 295 293 293 293 294 295 295 295 296
296 296 296 296 296 296 294 293 292 291 290 292 292 292 293 296 299 298 297 297 295 295 294 293 294 293 297 302 300 292 292 292 291 291 292 296 294 293 293 293 294 294 295 298 301 300 297 296 295 294 294 294 295 295 295 295 295 296 294 291 292 292 290 291 289 291 292 293 294 295 292 290 292 294 292 293 294 293 293 293 293 294 294 294 295
297 297 298 296 296 296 294 294 298 292 290 293 292 293 294 296 299 298 298 295 294 293 293 292 293 293 293 296 299 295 293 292 291 291 291 295 293 292 292 292 293 293 294 296 297 296 297 296 297 298 297 299 300 298 299 296 296 298 295 294 293 291 290 291 291 291 290 291 294 296 291 290 291 292 291 289 288 291 293 293 293 293 293 293 293
Wind_Speed
2 3 0 1 2 1 1 3 3 5 4 5 4 5 5 4 4 5 5 5 4 5 5 5 5 5 5 5 4 5 4 3 3 4 5 4 5 9 16 17 15 15 15 15 16 17 16 17 18 17 16 16 15 15 16 15 13 10 10 13 12 11 10 10 9 9 8 6 6 6 5 6 6 6 5 5 4 3 4 6 7 6 6 6 8
3 4 1 2 2 1 2 2 2 3 1 2 4 3 3 3 3 3 4 4 4 5 4 6 6 5 5 6 6 6 5 4 3 4 4 5 3 4 13 14 14 14 14 15 16 16 16 17 18 18 17 16 16 17 17 16 14 11 12 13 13 12 11 11 10 10 9 8 7 6 5 5 5 6 7 6 5 4 4 6 7 8 6 6 7
3 3 2 0 2 2 2 2 3 3 1 3 3 3 4 4 4 4 4 5 6 5 5 6 6 6 6 5 5 5 5 4 2 5 4 6 6 4 7 15 14 13 13 14 14 14 16 17 18 18 18 17 17 18 17 17 15 13 13 14 13 13 12 11 11 11 10 9 8 7 6 6 6 6 7 6 6 5 4 6 8 8 7 7 7
2 3 2 3 2 2 2 2 2 3 3 3 4 4 3 4 4 4 4 4 5 6 5 5 6 6 6 6 5 5 5 5 4 3 3 6 3 1 1 6 12 12 12 12 12 13 15 17 17 18 18 17 17 17 18 17 16 15 14 15 14 14 14 13 12 12 12 10 10 8 7 6 7 7 7 6 5 5 4 6 9 9 8 8 9
2 3 3 3 3 2 2 2 2 2 3 3 3 3 3 4 4 3 4 4 4 6 5 5 5 6 5 6 6 5 5 5 5 5 4 4 4 4 4 3 0 4 11 11 12 14 14 15 16 17 18 18 18 18 19 18 17 16 16 15 16 15 15 14 13 14 13 12 11 10 9 8 8 8 8 7 6 5 4 7 9 9 9 9 10
0 2 3 3 3 3 2 3 3 4 4 4 3 4 5 4 4 4 5 5 6 5 6 6 6 6 6 6 6 6 6 5 3 5 6 6 6 5 4 3 6 8 6 6 9 12 13 13 14 15 14 14 16 16 19 19 18 18 18 16 17 16 15 15 15 15 15 13 12 10 10 9 9 9 9 9 7 7 6 7 9 9 9 9 9
0 1 2 3 4 3 1 1 3 3 4 3 4 5 3 3 5 5 5 5 5 5 5 5 5 6 6 6 6 6 5 6 5 5 6 6 5 6 6 6 4 4 4 2 12 15 15 14 15 15 17 17 13 16 19 18 19 19 18 16 18 17 16 16 16 16 15 14 12 12 11 11 10 10 9 10 8 8 7 7 10 10 10 9 9
0 1 2 3 4 4 3 3 3 3 3 3 3 5 4 5 4 3 5 5 5 5 5 5 5 5 5 5 5 4 6 6 6 6 6 6 5 6 5 2 7 1 7 4 6 7 10 14 16 16 15 16 15 16 17 20 19 18 17 18 18 17 16 17 18 17 16 14 13 12 12 12 11 11 11 11 9 9 7 8 10 11 11 10 10
10 4 0 3 5 3 5 4 3 3 3 4 5 5 4 4 5 4 3 4 5 5 6 5 5 5 5 5 5 6 6 6 6 6 6 5 6 5 4 7 3 8 7 6 7 7 10 14 13 14 14 15 16 17 17 19 24 21 17 18 19 18 17 17 18 18 17 15 14 13 12 12 12 12 12 12 11 10 9 9 11 12 11 11 12
5 4 4 3 4 4 4 5 5 6 6 5 5 4 5 4 6 4 5 5 6 6 7 6 5 6 6 6 6 6 6 7 6 6 6 6 6 5 3 7 4 7 7 6 6 7 6 7 10 11 14 16 18 17 17 18 21 22 19 19 19 19 20 19 19 17 17 16 15 14 12 12 13 13 13 13 13 12 11 10 10 12 13 13 15
8 3 5 5 5 5 5 5 6 5 5 6 5 5 5 5 5 6 5 5 5 6 6 6 6 6 6 7 7 7 7 6 6 6 6 5 4 4 3 2 8 7 7 7 6 5 6 6 5 6 9 16 15 18 20 21 21 20 19 20 18 18 20 19 19 20 18 17 15 14 12 13 13 14 14 14 13 12 12 11 11 13 14 15 14
4 4 4 5 6 6 6 6 6 6 6 6 6 6 5 6 6 4 6 5 5 5 5 7 6 5 6 7 6 7 8 6 5 4 6 6 6 6 5 3 2 6 6 6 6 5 6 6 6 7 5 9 15 14 17 17 18 19 19 19 17 18 19 18 17 19 20 18 16 15 12 14 14 14 15 15 14 13 12 12 11 15 16 17 16
2 3 5 5 5 5 5 5 5 5 5 5 4 5 5 5 5 4 5 6 5 6 7 6 6 7 6 4 6 5 7 4 5 10 8 7 6 6 6 5 5 3 6 6 6 7 6 6 6 4 4 5 7 13 15 18 19 19 19 19 19 18 17 19 19 19 19 19 17 15 12 15 14 15 15 15 15 13 13 12 10 15 16 15 16
6 6 5 5 5 5 4 4 4 5 3 3 4 5 6 6 5 6 4 5 5 6 8 7 5 7 9 10 5 4 5 4 9 10 9 7 7 6 6 5 6 6 5 4 6 7 7 6 4 5 6 6 5 6 8 11 14 18 18 18 19 19 18 19 20 19 20 18 17 15 12 15 15 16 15 14 15 15 15 14 12 14 17 17 17
6 5 5 5 4 4 3 3 3 3 4 5 5 5 5 6 6 6 6 4 3 3 7 5 6 5 5 3 7 8 4 3 4 8 7 6 7 6 7 5 6 6 5 5 5 5 5 5 5 6 6 7 6 5 6 8 10 15 17 17 15 17 16 19 21 21 18 19 18 17 12 15 16 16 16 16 16 15 16 15 14 14 15 16 16
5 5 4 4 4 3 3 3 3 2 3 3 4 6 6 7 6 5 4 6 5 4 4 5 5 6 6 3 4 3 8 6 10 9 3 8 7 7 6 6 8 8 6 5 5 5 5 5 6 6 6 6 6 6 6 5 9 12 15 15 14 13 16 20 22 21 19 19 18 17 14 15 17 16 17 17 15 14 16 16 16 15 16 16 17
5 5 4 3 3 2 2 3 3 4 5 6 6 5 6 5 6 5 6 3 6 3 4 5 6 3 4 4 3 1 1 7 9 5 4 6 5 7 7 8 9 9 8 7 6 5 5 5 6 6 6 6 6 6 6 5 5 7 9 14 15 17 17 21 22 22 21 22 19 19 16 17 17 17 17 15 15 14 15 17 18 16 17 16 16
5 3 2 1 2 4 3 4 5 7 7 6 5 6 7 7 6 5 6 6 3 5 5 5 5 4 5 2 1 4 5 7 6 7 5 4 4 4 6 8 8 9 8 7 8 7 4 6 5 6 6 6 5 5 5 5 5 5 6 10 17 17 17 20 23 21 21 19 20 21 19 19 17 16 17 18 18 18 18 20 18 17 17 17 17
3 3 4 3 5 5 5 6 7 6 6 6 6 5 5 5 5 6 6 6 5 5 6 6 5 5 6 6 4 2 3 4 5 8 9 4 3 5 7 8 8 7 8 8 8 7 5 4 5 4 4 4 4 4 4 6 9 9 11 12 14 17 18 18 17 21 21 22 21 20 20 20 19 18 19 18 19 18 18 21 20 18 18 17 18
4 5 4 5 5 6 6 7 7 6 5 6 5 5 6 6 6 6 6 6 6 6 6 7 7 7 7 7 6 5 5 4 5 7 6 10 12 8 4 8 9 7 7 9 9 8 6 6 5 5 3 4 5 4 4 5 5 7 7 13 14 14 16 16 17 16 17 20 22 23 21 22 22 21 21 19 19 19 18 20 20 19 17 16 17
5 5 5 5 6 6 6 7 7 5 5 6 6 6 6 6 6 7 7 7 6 6 7 7 7 7 8 8 6 6 5 4 5 6 4 8 7 10 13 11 9 7 9 9 8 6 4 5 6 6 5 4 3 4 5 5 5 5 6 10 13 15 16 17 18 18 17 16 20 17 20 22 22 23 22 21 20 19 18 20 21 19 18 17 18
6 5 6 6 6 6 7 7 5 5 6 6 5 6 6 6 6 6 6 7 6 6 7 6 6 6 6 6 7 8 8 7 7 9 5 3 8 9 9 11 12 11 8 10 8 6 6 7 8 9 7 6 5 5 5 6 6 6 7 8 12 17 18 19 19 18 17 18 13 19 23 22 23 23 22 22 22 20 19 21 22 21 20 19 17
6 5 5 6 6 6 6 5 5 5 5 5 5 5 5 5 5 6 6 7 6 6 7 6 5 5 6 6 7 8 7 7 8 8 8 8 9 8 8 7 8 9 9 9 6 7 9 8 11 11 10 9 8 7 6 6 7 7 9 12 13 13 16 19 20 19 18 19 17 17 19 22 23 22 22 22 22 22 22 22 23 22 20 21 20
4 4 5 6 6 5 5 5 5 4 5 5 5 5 5 5 6 6 6 6 6 6 5 7 8 6 7 6 5 5 5 5 5 6 6 7 7 8 8 9 6 5 6 7 6 7 11 9 11 12 11 10 11 10 9 8 6 10 9 11 13 13 13 14 18 19 18 18 18 20 20 22 23 23 23 24 24 23 23 24 24 21 21 22 23
4 5 4 6 6 6 5 4 3 4 3 5 4 5 6 7 7 6 6 7 7 7 7 8 8 8 7 7 5 6 6 5 4 5 4 5 5 7 8 7 6 7 6 6 6 5 10 9 12 12 12 13 13 12 12 11 7 7 7 7 13 14 14 16 18 18 19 18 18 18 17 18 22 23 24 23 23 23 24 23 21 19 19 19 21
4 6 5 5 5 5 3 2 2 3 3 4 6 6 6 6 6 6 5 6 7 7 8 8 7 7 6 6 7 7 7 7 6 5 7 7 6 7 7 7 5 5 4 6 7 10 10 9 10 11 11 13 12 13 13 12 13 14 12 9 9 13 15 16 16 19 20 19 20 19 21 22 18 18 18 21 21 21 20 20 18 18 17 17 19
5 5 4 4 4 3 2 1 1 2 3 4 7 7 6 5 5 5 5 5 7 7 8 9 9 10 9 8 7 8 8 8 7 9 8 7 5 6 7 11 10 7 7 5 5 11 9 6 8 12 11 12 12 13 14 13 18 27 18 7 6 10 13 13 14 17 19 19 21 23 23 24 18 16 18 18 20 21 21 19 18 19 18 18 18
6 4 4 3 3 3 1 0 2 4 5 6 7 6 4 4 4 4 5 4 6 9 8 8 9 9 9 9 8 9 9 9 9 9 9 8 6 6 6 6 9 10 7 7 6 7 10 9 6 11 12 11 12 11 15 16 16 24 20 10 7 7 10 13 15 16 18 19 21 23 25 22 19 19 18 20 21 21 20 19 19 19 19 19 20
3 4 5 4 2 2 2 2 5 7 7 6 6 4 4 4 4 4 6 6 8 8 7 9 8 8 9 10 9 9 9 9 9 9 9 9 9 9 8 5 5 6 8 8 8 9 9 10 8 10 13 11 12 12 12 12 16 19 13 12 12 12 17 16 15 17 18 18 19 22 22 22 20 19 20 21 21 21 21 20 19 19 19 23 24
4 3 3 2 1 2 4 5 5 7 6 5 4 4 4 4 3 4 4 7 8 7 7 8 8 7 8 9 8 8 8 9 9 10 10 9 9 9 9 8 4 6 4 7 6 7 8 7 7 10 13 13 11 12 11 11 17 18 13 12 12 15 22 23 16 18 16 15 14 12 15 18 21 18 19 22 21 21 21 21 20 20 22 23 22
1 1 1 1 1 4 5 5 6 5 5 4 4 3 2 3 4 6 6 7 7 8 7 7 7 7 8 9 9 9 8 9 9 10 10 10 9 8 9 9 9 5 4 5 6 7 8 10 8 11 12 13 11 12 11 11 14 16 12 12 13 18 20 18 21 10 8 10 10 11 16 19 21 21 19 22 22 20 20 21 24 23 23 24 21
1 1 2 1 5 7 5 6 5 4 4 3 2 1 2 3 4 6 7 8 7 7 7 7 6 8 9 10 10 9 9 8 9 10 10 10 9 8 9 8 9 9 8 5 8 7 9 10 9 11 13 12 10 14 14 11 12 17 12 11 12 17 13 13 19 21 15 12 12 12 19 20 22 22 24 23 21 22 21 20 22 22 22 22 22
2 4 4 5 5 6 6 5 5 4 3 4 3 2 3 4 5 6 7 8 7 6 6 7 7 8 9 10 10 10 9 9 9 9 10 10 10 9 8 9 9 10 10 7 9 8 8 8 8 9 11 12 11 14 14 13 13 13 13 11 11 12 12 12 13 19 25 23 13 14 14 17 20 24 23 20 19 20 20 19 19 20 21 22 22
7 7 8 5 6 8 9 9 8 8 7 6 4 6 6 5 5 6 7 7 7 6 5 7 8 7 7 9 10 10 9 9 9 10 9 10 10 10 10 9 9 9 11 10 9 9 10 8 10 9 10 12 11 13 13 14 14 13 13 12 10 10 9 11 11 12 24 21 23 17 13 15 15 18 20 20 18 17 19 18 19 20 21 22 22
6 7 6 7 8 9 9 9 8 7 7 6 5 5 6 5 6 6 6 6 6 6 7 7 6 5 7 8 9 8 8 9 8 8 9 10 9 10 10 9 9 10 11 11 9 9 10 8 9 11 11 11 11 13 13 10 10 10 12 12 11 10 7 10 10 10 18 21 22 20 16 11 14 14 17 19 20 19 16 18 21 20 21 20 21
8 7 9 8 9 10 9 9 8 7 7 7 7 6 6 7 6 7 6 5 4 5 6 6 7 6 6 6 7 7 7 8 8 7 7 9 10 9 10 9 9 10 9 8 9 6 7 9 10 10 10 10 11 11 11 9 10 11 10 10 10 12 8 9 12 12 16 21 20 22 26 21 10 12 13 15 19 21 18 16 18 20 20 21 21
7 9 9 8 9 10 9 8 7 7 6 6 7 7 6 7 7 7 8 7 6 5 5 6 7 6 6 6 5 5 6 8 7 7 6 8 9 9 9 9 9 8 7 7 7 7 8 10 8 8 8 8 7 9 12 13 12 10 11 12 11 11 10 8 10 12 19 21 20 20 24 22 17 10 10 11 13 15 17 17 16 17 20 21 22
9 10 10 8 8 9 8 7 7 6 6 6 7 6 6 6 7 6 6 7 7 7 5 5 6 6 7 7 6 5 6 6 6 6 6 6 7 10 9 8 7 6 6 6 6 8 8 8 9 10 11 12 11 10 12 12 12 14 13 13 11 12 12 11 11 12 12 13 13 13 17 17 21 15 8 10 10 11 12 13 13 13 15 18 21
10 9 9 10 8 8 7 7 7 7 7 7 7 7 6 6 7 7 7 6 6 6 6 5 5 7 8 7 7 6 6 5 5 6 6 7 6 8 8 7 5 6 7 6 6 8 9 9 9 9 9 10 9 12 12 10 10 10 13 13 14 12 12 10 12 12 13 14 14 14 16 16 18 17 18 13 10 10 11 11 11 12 12 14 18
10 10 9 9 7 7 6 6 6 6 8 8 7 6 6 7 7 7 7 6 6 6 7 7 6 5 5 7 8 7 5 5 5 5 4 6 6 6 6 6 6 6 6 6 7 7 9 9 10 10 10 10 11 9 8 10 11 12 13 11 12 13 13 10 10 14 14 14 14 12 12 15 14 17 17 18 23 26 22 11 12 12 12 14 16
8 10 10 9 9 8 6 6 7 7 9 7 5 5 6 7 7 8 7 7 7 7 7 7 8 9 8 6 7 8 11 12 12 8 7 3 4 5 6 5 5 5 5 6 6 6 7 8 9 9 10 12 12 13 14 14 13 12 11 11 9 10 9 9 7 11 14 14 12 11 11 12 11 12 11 11 14 17 17 20 17 20 20 15 14
9 9 9 8 7 7 7 7 7 7 6 5 5 11 9 6 7 7 7 7 7 7 7 7 8 7 7 7 7 16 15 14 12 11 10 7 3 1 2 4 5 5 5 6 7 6 7 9 10 9 12 13 13 13 13 11 10 10 11 12 12 11 10 8 7 8 15 15 13 12 11 10 9 9 11 12 12 13 11 12 12 15 16 17 17
10 9 8 8 7 6 6 7 7 6 6 5 11 12 12 12 8 7 7 7 7 8 7 7 7 7 6 6 6 10 12 11 9 12 11 9 6 5 6 5 5 4 5 8 7 6 7 8 8 9 10 11 13 12 12 12 11 11 10 10 10 11 12 12 13 7 12 15 12 11 10 12 10 9 10 11 11 10 11 12 19 19 18 18 18
9 9 9 7 7 6 6 6 6 6 6 7 10 11 12 13 11 8 7 7 7 7 7 7 6 6 6 7 7 6 8 10 9 10 11 13 8 4 7 9 8 8 5 5 6 6 6 8 9 10 9 11 11 12 13 13 13 12 11 10 11 11 11 12 11 11 12 15 12 8 9 10 11 7 9 10 9 10 11 17 21 20 20 19 18
9 10 9 8 7 5 6 6 6 5 4 7 8 10 11 13 13 10 7 7 8 7 7 7 7 7 7 8 8 9 8 15 11 9 7 9 11 9 5 5 5 11 12 13 11 6 4 7 9 10 10 9 12 13 13 13 11 11 12 12 11 10 10 11 11 9 12 14 11 9 9 10 10 9 8 8 9 9 11 16 23 22 21 20 18
9 8 8 8 6 5 5 5 5 4 5 7 8 9 9 12 13 10 8 9 8 8 8 7 7 7 7 8 8 9 9 10 10 10 9 9 8 9 8 7 6 7 10 11 12 12 7 6 8 10 8 9 10 9 11 11 12 12 12 13 11 11 12 11 10 9 9 12 12 9 6 11 11 9 7 8 8 9 10 16 21 22 21 21 20
8 8 8 7 5 5 5 4 5 5 4 7 8 8 9 11 13 10 8 8 8 8 7 7 7 8 7 7 7 8 8 9 9 11 9 8 8 8 8 8 6 6 5 5 6 6 5 5 8 9 8 8 8 10 9 9 10 8 8 9 9 8 5 4 4 8 9 12 14 10 7 9 10 10 5 7 8 10 10 13 21 23 23 21 20
7 7 7 7 6 6 5 4 5 4 3 8 7 8 8 11 13 7 8 8 8 8 7 6 6 6 6 7 7 8 7 8 12 16 13 8 9 8 9 8 8 7 6 6 6 8 7 4 7 9 7 8 11 10 10 10 9 8 8 7 6 7 9 10 12 10 11 11 14 10 7 10 11 10 8 4 9 11 11 11 16 23 24 22 20
8 7 6 6 6 6 5 4 4 3 3 7 7 8 7 8 9 7 7 7 7 7 7 6 6 6 6 7 7 7 7 7 11 14 15 11 8 9 8 8 7 7 7 8 9 13 13 12 7 14 13 13 13 13 14 15 12 9 7 9 13 10 12 11 12 11 11 12 13 13 8 11 13 12 10 5 7 10 12 13 13 17 24 21 22
8 8 7 7 6 5 5 4 3 4 3 6 9 9 8 9 9 7 6 7 6 7 6 5 5 6 8 14 10 7 7 7 12 13 13 9 8 8 8 8 9 9 9 7 5 9 13 12 11 9 10 10 11 12 13 14 15 12 12 14 9 9 12 11 11 10 9 12 14 13 8 11 10 11 11 9 3 7 11 12 14 14 18 17 22
8 7 7 7 6 5 4 4 6 5 4 5 9 12 14 12 8 5 7 7 7 6 6 6 5 6 6 7 11 10 8 10 14 13 12 8 7 6 6 8 9 9 7 5 5 7 6 7 8 7 6 7 6 5 8 14 15 13 11 9 7 9 10 10 10 9 5 10 13 14 10 11 12 12 10 8 8 7 10 12 13 13 13 13 14
Wind_Direction
10 306 291 284 295 288 210 236 227 231 216 226 223 240 246 231 248 263 265 269 277 288 297 306 304 295 290 295 295 289 272 260 240 247 265 236 189 201 200 202 200 199 198 199 200 199 201 199 201 207 214 216 219 215 206 210 212 217 182 177 181 189 191 194 197 197 204 194 201 205 210 212 195 183 193 184 173 159 179 175 163 152 144 136 129
13 352 4 317 337 243 193 230 255 266 222 217 232 246 284 323 311 303 314 313 315 305 318 318 313 303 295 298 300 293 285 283 316 340 305 300 215 221 216 209 205 203 204 204 205 205 205 204 206 211 215 221 222 207 207 206 208 211 184 183 183 189 197 194 200 200 201 194 196 196 205 212 199 196 188 185 176 191 183 184 171 160 152 143 135
17 345 19 324 288 343 317 292 296 294 316 3 0 12 1 345 318 302 299 301 293 290 291 288 289 290 288 285 281 287 296 306 310 288 332 319 323 277 222 215 210 208 211 211 212 211 211 212 213 216 218 219 221 214 209 204 203 203 192 187 185 190 195 197 202 203 201 197 197 197 205 222 203 204 187 187 196 179 179 195 173 165 158 154 146
357 333 292 327 335 350 321 335 309 331 21 32 4 340 322 302 297 297 290 290 296 301 295 286 283 281 282 279 277 275 268 275 294 285 238 265 262 251 269 230 219 215 221 220 218 219 219 219 220 222 221 220 223 218 208 204 201 199 197 189 186 190 194 197 201 203 202 201 200 201 213 222 215 201 198 188 202 194 184 197 178 170 163 163 155
299 323 329 326 287 270 292 286 305 21 21 345 324 319 319 310 308 320 330 336 334 321 314 305 292 289 288 289 292 283 273 275 252 270 273 261 264 234 222 218 204 244 248 236 226 226 226 227 227 227 225 222 223 218 206 202 198 196 197 192 187 189 193 197 200 201 202 202 206 211 213 216 233 209 208 199 195 202 193 202 187 173 171 169 161
257 306 341 327 323 295 299 344 13 28 356 351 354 329 323 329 324 358 346 347 331 316 316 313 308 310 313 308 309 301 294 272 242 236 243 251 253 246 200 208 202 219 231 253 272 247 239 238 239 239 244 252 248 238 214 203 199 196 197 195 186 190 193 196 199 199 201 203 207 213 217 212 222 219 212 207 207 201 187 202 198 179 177 174 161
243 78 332 350 325 334 5 45 36 11 14 348 358 331 331 336 358 359 348 341 334 324 323 317 319 319 311 308 304 304 310 299 269 250 251 248 238 236 237 228 220 21 341 169 246 248 238 238 239 239 238 239 240 262 242 224 206 199 203 193 185 189 196 200 199 199 200 205 209 213 217 217 219 220 212 210 206 208 187 201 201 186 181 176 166
112 147 16 329 321 331 338 15 17 33 14 351 347 331 347 7 351 7 349 327 325 315 308 304 302 300 296 298 293 297 294 288 283 272 258 255 247 242 235 233 66 220 246 254 262 262 253 238 235 233 232 240 236 235 247 249 236 220 207 192 190 190 196 201 200 200 202 204 208 214 214 221 220 217 212 211 205 206 194 204 205 186 179 175 175
1 352 32 340 319 341 31 16 23 20 359 350 1 357 23 3 348 335 331 311 316 307 310 306 306 303 302 302 301 298 290 282 277 272 276 265 262 266 255 88 153 210 223 230 257 258 254 252 243 235 234 235 236 236 236 249 247 233 220 198 197 201 202 206 205 202 201 202 207 212 217 220 220 216 212 212 204 205 200 204 207 193 181 177 175
292 273 46 22 18 28 21 8 11 14 16 19 12 7 9 5 345 327 332 332 326 323 317 322 321 317 315 312 308 303 295 293 287 285 278 271 268 267 274 118 179 236 235 215 225 242 254 260 254 245 241 237 235 240 238 237 249 247 235 220 200 203 204 207 209 205 206 200 205 210 208 215 220 218 216 211 204 205 201 205 210 196 190 176 178
303 305 40 29 29 24 27 21 31 27 21 16 6 359 353 348 346 332 337 337 318 311 319 327 325 321 319 315 312 309 303 299 304 310 307 300 300 287 278 222 164 213 251 243 231 234 248 251 244 228 235 236 232 237 243 236 238 243 242 238 204 211 211 212 210 203 204 203 207 209 198 206 220 217 219 208 207 208 205 206 211 197 190 184 175
235 48 49 41 33 24 23 23 26 28 19 11 356 355 348 347 344 343 342 337 331 335 347 340 323 322 320 317 311 307 305 316 330 341 336 327 317 304 288 287 123 180 226 251 252 241 242 241 241 246 233 244 243 234 233 243 242 239 237 239 223 228 217 227 227 212 199 200 201 207 195 204 213 217 218 209 207 210 214 209 213 198 188 188 177
61 68 54 49 50 41 35 21 21 26 19 1 346 353 353 357 349 347 349 346 339 356 340 339 336 332 329 306 311 311 304 347 359 353 343 325 323 319 307 315 286 234 206 222 239 246 247 240 235 234 237 236 241 240 231 231 242 240 233 234 230 218 228 228 228 229 204 203 203 208 197 203 208 215 214 216 205 209 218 215 207 196 187 187 179
38 50 51 56 50 45 36 21 16 12 4 354 2 4 360 357 359 356 356 1 348 345 334 349 359 349 331 331 321 312 301 22 13 335 336 331 327 322 309 297 289 282 264 207 219 227 236 240 222 213 232 232 222 224 234 233 236 238 238 232 228 228 224 229 227 230 219 200 202 212 194 200 206 211 207 219 214 213 218 214 206 194 188 186 181
48 51 52 42 48 45 19 9 7 5 15 2 359 357 360 357 9 14 350 355 331 330 337 1 328 333 299 317 326 338 340 359 342 332 328 328 331 333 330 312 291 285 273 250 243 241 242 234 234 225 219 228 223 224 218 228 228 231 237 240 227 212 217 234 229 223 227 209 198 206 191 203 207 208 209 212 216 215 220 214 207 196 190 191 186
51 62 58 42 40 32 5 360 333 1 32 12 355 2 7 7 7 11 5 351 349 323 342 351 1 3 0 341 292 328 325 355 344 319 314 331 323 330 336 333 328 319 300 275 269 265 265 252 249 241 223 222 217 219 231 224 234 235 233 238 236 225 212 229 226 221 225 225 198 203 184 198 209 210 210 213 215 218 217 217 207 200 194 192 191
36 48 53 36 23 8 5 345 5 8 13 16 22 16 19 9 5 3 359 353 339 328 329 359 359 34 15 334 333 346 332 308 322 281 331 325 330 340 335 338 336 327 321 303 291 275 264 262 251 248 244 233 228 218 218 220 224 232 232 231 231 231 225 227 228 224 219 223 198 197 187 195 205 207 212 210 211 217 210 218 211 200 199 194 189
44 26 25 27 12 359 8 30 31 33 38 36 27 22 12 5 358 354 348 347 343 346 343 347 356 9 8 355 235 319 318 315 326 328 322 263 325 333 329 332 328 322 320 310 301 286 253 258 245 245 248 242 231 224 212 202 214 221 220 228 228 228 223 223 224 219 224 225 216 197 194 194 200 204 210 210 210 215 212 212 209 203 203 199 192
32 1 2 26 38 28 28 37 43 44 37 33 25 16 4 2 354 1 353 351 5 14 6 350 348 15 3 353 350 293 301 325 348 327 335 327 2 357 336 332 328 322 326 325 313 300 285 268 279 274 274 263 250 240 221 214 219 224 231 229 224 224 226 224 223 220 222 223 228 209 199 197 198 203 207 207 210 213 213 210 210 204 203 204 197
50 38 41 42 40 34 39 44 42 37 34 32 20 4 5 1 5 4 10 17 17 24 16 12 16 358 360 4 358 355 5 358 33 355 322 329 331 341 343 342 336 333 331 329 335 332 344 341 324 308 279 279 277 270 249 234 230 229 228 225 229 230 230 229 225 221 215 214 227 225 210 205 204 205 208 205 207 211 210 210 209 207 201 198 204
63 56 52 42 39 42 46 45 39 26 30 20 10 7 6 3 7 16 24 21 25 28 32 20 15 8 358 2 352 7 7 18 3 0 342 335 335 343 339 339 340 347 346 340 347 3 19 338 325 315 303 282 266 252 253 246 240 235 229 225 228 231 230 232 231 224 218 225 226 223 223 207 205 206 206 207 206 208 208 209 209 205 204 199 203
55 42 53 49 43 46 50 44 30 25 28 9 4 6 7 18 23 23 30 33 24 33 38 24 20 10 12 351 7 6 12 6 8 354 342 358 339 336 342 342 343 333 339 345 353 14 12 4 356 351 340 321 304 285 264 255 246 238 235 232 230 228 229 229 229 224 218 217 226 222 216 210 206 207 206 205 205 208 207 209 210 204 203 203 199
69 50 55 60 49 47 46 39 31 27 13 11 7 7 11 29 23 24 36 38 29 33 31 25 15 8 8 14 19 26 9 358 355 356 354 349 343 346 338 342 322 326 337 337 356 23 18 15 18 7 2 350 335 320 292 264 254 241 231 216 231 238 235 229 224 220 217 215 215 226 227 214 214 208 203 204 207 207 207 208 209 205 202 203 201
70 65 55 64 61 50 41 36 19 11 13 3 11 15 26 28 23 32 42 35 32 32 24 19 15 13 12 5 12 15 8 7 354 352 349 343 338 339 341 331 326 337 322 334 358 30 16 19 23 5 359 355 351 341 331 309 273 250 235 230 228 233 245 247 231 220 217 215 210 216 223 222 215 214 207 203 205 206 206 206 206 201 200 201 203
73 70 55 65 65 55 44 22 9 9 6 17 12 31 36 31 26 37 51 40 30 26 25 17 15 22 12 1 358 3 350 342 345 349 338 330 335 348 347 331 326 327 338 347 5 15 22 18 25 8 2 1 354 348 345 339 310 270 247 241 235 233 237 238 240 224 218 209 208 211 221 242 225 214 207 203 201 204 205 205 202 199 198 196 200
96 77 69 78 73 75 55 18 1 360 16 28 38 34 37 42 38 40 48 44 34 32 29 22 21 19 14 5 4 1 355 348 341 339 350 345 350 351 336 335 327 334 331 354 21 21 15 16 23 13 8 6 357 351 348 348 355 328 271 251 238 238 236 233 230 225 220 209 208 203 208 228 237 213 214 203 198 200 203 202 198 196 197 196 196
80 67 79 92 104 134 151 98 352 349 15 45 45 40 40 42 40 39 46 51 45 40 34 26 24 17 16 13 3 7 1 356 0 0 352 347 344 336 352 1 360 6 2 357 22 46 11 358 13 14 11 4 3 357 352 351 355 353 343 265 264 251 246 239 233 231 226 211 207 206 206 219 226 207 212 205 198 200 199 199 194 193 194 196 199
86 86 61 108 169 150 134 120 359 25 45 62 59 54 44 44 34 34 43 44 48 46 39 29 25 22 23 14 18 14 8 6 8 4 0 343 336 351 3 15 15 0 358 4 21 26 20 8 1 20 8 5 2 357 357 358 3 353 0 345 324 297 260 243 238 232 230 219 209 209 208 210 215 212 209 204 201 198 199 196 194 194 192 194 202
122 152 165 189 143 143 129 62 48 41 47 60 67 60 49 37 36 39 48 44 50 46 43 35 24 25 27 25 27 21 16 10 11 9 2 357 353 354 355 11 25 23 6 1 16 5 7 12 7 360 9 1 2 359 357 358 357 360 358 359 0 353 328 282 242 232 232 231 214 215 209 207 211 219 212 207 207 202 198 197 192 194 193 196 201
176 160 158 167 192 113 93 73 55 55 68 73 72 65 57 32 32 47 54 63 62 51 43 37 28 25 29 32 28 27 13 17 17 12 10 5 4 3 357 352 28 39 21 13 359 8 351 3 19 3 4 359 4 359 358 354 353 357 358 355 359 355 351 346 274 235 227 233 228 216 223 213 214 218 222 215 212 206 199 197 194 192 198 201 201
146 165 176 205 149 102 93 79 70 67 72 82 87 67 57 45 36 56 56 64 64 58 43 39 29 26 27 29 25 25 15 17 19 17 14 11 6 5 2 0 1 15 21 33 13 4 4 2 5 13 3 356 1 358 358 356 353 354 355 355 357 355 359 359 7 312 260 242 226 205 212 215 213 214 222 219 215 212 209 202 201 198 200 203 202
260 206 192 151 90 102 104 97 86 73 72 71 94 115 63 55 57 64 63 69 66 60 53 42 36 31 31 31 26 23 15 18 23 19 16 13 10 10 7 4 4 8 7 43 36 8 14 8 1 1 1 355 358 3 359 354 351 354 354 353 355 2 4 9 17 20 352 303 267 231 220 219 216 215 218 222 216 208 210 210 204 204 201 199 200
215 144 104 78 90 101 109 110 107 98 74 44 46 51 37 54 62 69 73 72 68 59 57 48 40 39 36 36 28 24 18 26 25 22 21 14 13 13 11 12 13 15 13 23 35 16 13 10 3 1 352 356 2 4 359 355 352 351 351 353 0 7 9 13 6 9 7 4 332 272 256 224 214 218 220 224 224 220 213 209 209 203 200 200 200
82 93 100 105 85 71 60 48 40 34 28 25 38 59 51 47 55 69 78 76 72 64 58 56 47 39 37 38 31 24 20 25 26 29 21 20 17 17 16 14 17 22 20 29 34 23 6 357 4 358 2 3 359 3 0 353 350 349 350 353 0 8 14 15 6 5 5 358 359 347 272 268 239 217 216 214 221 227 216 209 210 203 205 202 199
67 70 64 59 68 71 65 54 45 37 31 30 16 36 46 50 61 75 79 81 82 76 66 60 55 44 40 39 32 24 18 24 21 22 25 27 24 25 20 17 19 23 27 35 29 24 13 4 359 3 3 1 7 355 354 353 346 345 351 357 358 360 15 16 9 8 4 360 358 359 351 275 258 254 229 215 214 219 220 210 204 205 205 202 200
81 74 67 66 67 68 68 58 46 41 34 30 30 25 42 47 53 63 66 63 66 77 80 72 65 53 45 42 34 27 19 23 17 14 18 28 31 28 27 21 23 25 27 30 32 30 13 13 8 8 1 357 1 358 352 354 356 357 359 349 355 1 6 14 13 10 3 1 360 7 5 358 302 252 255 249 223 218 220 214 210 205 203 203 200
83 82 73 66 67 66 66 62 52 45 38 36 38 33 39 52 60 68 67 64 60 63 72 76 72 63 52 48 37 32 27 25 13 15 2 22 30 33 32 26 27 25 28 27 29 26 24 24 8 7 360 7 358 356 0 357 356 3 2 3 359 356 360 18 13 9 3 2 1 3 8 2 355 302 270 254 263 255 234 219 213 213 208 206 205
82 79 81 71 70 71 67 65 60 53 45 42 42 36 34 51 55 58 64 65 58 54 59 71 72 65 58 47 38 39 34 30 7 8 5 10 22 36 34 28 24 22 22 20 24 26 30 25 17 6 12 6 3 8 1 358 359 359 3 2 360 3 358 10 17 11 7 3 357 359 7 3 6 1 291 278 284 279 283 281 261 234 223 213 210
91 86 81 81 72 75 69 63 58 54 52 46 41 34 34 45 54 57 57 59 58 52 46 56 68 68 61 51 41 38 43 29 8 4 6 10 16 29 34 26 16 21 22 18 16 28 27 24 19 17 8 11 8 3 359 357 360 7 2 357 4 359 358 11 15 11 7 1 357 354 11 5 15 21 24 21 357 313 287 286 271 273 263 242 223
93 92 88 88 83 75 70 66 59 58 56 49 38 35 41 48 55 53 57 60 59 52 46 43 47 54 57 56 48 34 40 41 16 344 8 16 8 16 16 30 17 21 25 16 22 26 28 25 22 13 13 3 8 10 357 359 5 11 14 5 357 355 355 0 35 16 3 1 356 349 5 8 15 15 19 24 19 19 15 338 325 317 281 259 247
95 95 95 91 89 80 70 66 59 53 54 46 37 39 49 50 57 57 52 52 53 53 47 43 42 43 37 29 33 31 27 30 25 14 342 359 36 11 348 18 21 19 20 24 20 29 31 29 24 20 15 15 12 5 8 12 11 2 350 356 353 356 350 350 21 33 13 1 351 347 2 9 6 13 8 17 18 17 19 20 13 5 1 339 282
98 96 92 89 85 84 79 66 60 57 52 44 40 57 57 68 66 62 58 52 53 51 49 44 41 43 43 33 21 25 25 24 18 9 3 341 329 6 320 337 30 19 18 22 28 29 32 31 27 17 22 22 11 8 5 8 1 358 2 2 0 354 351 3 4 39 14 7 356 352 350 3 5 13 16 18 13 16 15 14 4 2 360 358 353
97 97 94 90 85 77 74 71 64 59 48 28 43 58 60 65 72 67 66 61 54 54 51 49 45 41 34 31 23 19 19 17 14 12 6 356 322 316 322 345 2 50 20 26 32 30 35 38 28 28 30 23 17 6 6 358 7 9 9 3 0 1 5 3 0 4 25 6 355 346 345 358 355 19 20 16 11 13 15 9 2 3 360 359 354
97 96 94 91 87 79 74 68 64 59 54 26 52 64 73 74 77 78 74 70 64 59 56 53 49 44 37 33 29 23 19 21 28 11 7 7 4 303 304 318 348 47 59 68 41 33 39 44 38 33 28 29 16 12 9 6 5 7 13 9 9 7 7 11 2 9 7 3 350 342 342 356 351 15 24 15 10 12 9 4 4 3 3 359 356
98 96 96 92 87 80 73 71 61 45 53 22 54 70 87 93 88 86 77 78 74 67 63 59 52 46 40 35 32 26 14 19 21 13 18 13 11 14 348 348 8 37 23 24 43 61 67 60 55 42 35 27 26 22 16 11 5 16 10 15 9 9 12 15 8 0 5 1 353 353 345 348 353 358 27 10 7 8 4 6 3 2 1 360 355
101 103 102 102 97 87 80 78 67 47 40 1 44 66 93 111 110 96 87 82 78 72 67 61 55 50 42 43 38 29 20 24 17 12 18 18 15 19 20 16 8 1 14 19 23 47 56 74 67 62 43 42 44 31 25 20 21 18 14 18 6 10 15 13 1 360 8 7 8 334 321 351 0 348 28 5 9 9 8 2 2 3 359 357 356
107 110 112 111 109 100 91 80 72 51 15 1 37 57 85 113 113 104 95 88 82 75 68 62 60 54 46 44 43 38 28 25 18 17 21 13 20 17 14 11 10 4 359 359 20 32 60 76 79 77 67 58 54 46 40 38 33 24 20 15 6 3 353 339 7 10 12 14 7 0 351 335 352 349 19 12 10 12 4 0 3 2 359 357 354
99 99 98 103 107 102 93 86 76 51 8 11 34 55 87 124 125 114 106 95 90 81 72 68 62 59 55 48 42 35 28 26 8 15 16 20 26 19 12 4 6 8 9 348 351 50 76 102 105 89 83 78 68 55 44 38 35 27 25 24 21 24 22 21 21 3 17 6 10 2 344 352 345 347 341 1 19 11 2 4 357 360 358 355 355
104 100 106 103 109 106 96 89 86 59 21 6 30 59 77 120 123 114 111 104 95 89 79 68 59 53 52 50 45 33 23 20 10 19 14 24 29 20 14 10 10 15 9 353 1 32 51 69 90 114 101 77 64 55 44 36 34 25 24 30 26 15 27 23 17 10 14 6 8 5 347 356 350 349 342 335 31 10 8 3 359 358 356 353 355
102 104 102 96 91 95 100 94 99 87 36 11 35 60 84 113 123 114 113 109 102 97 81 59 51 40 34 38 43 34 22 9 10 24 19 27 33 21 20 19 16 18 11 357 4 38 36 41 58 101 124 96 68 52 42 37 32 28 35 37 7 12 29 25 18 4 2 14 10 359 4 11 341 358 351 336 335 23 11 6 360 358 358 358 358
111 109 101 98 86 75 90 104 91 85 56 25 36 60 71 81 94 105 106 101 98 91 86 65 46 40 26 20 24 27 23 11 12 15 25 31 42 29 25 29 21 23 1 360 26 44 29 36 23 38 62 69 62 45 38 37 35 39 43 43 20 31 32 24 22 4 355 18 5 357 15 5 2 3 0 352 7 354 8 3 3 1 1 359 358